Content
SEND FEEDBACK

Daily
Averages
Monthly
Summary
Mexico

PLAYA DEL CARMEN, QUINTANA ROO


Home > North America > Mexico > Quintana Roo
Elevation: 30 feet     Latitude: 20 38N     Longitude: 087 04W

WEATHER
 
SELECT A DAY
Number of Records: 206,620;   Date Range: 2/21/06 - 12/27/14
 
SHARE

PRINT THIS DATA

[ ← Previous Day ]
WEATHER ALMANAC - NOVEMBER 13, 2013
[ Next Day → ]
[ °C ]   °F
Weather ElementAverageHighLow
Temperature61.6 °F68 °F (12:35 am)53.6 °F (11:55 pm)
Dewpoint47.4 °F55.4 °F (12:35 am)42.8 °F (5:35 pm)
Humidity60 %77 % (11:55 pm)46 % (3:35 pm)
Barometer30.25 in30.34 in (8:55 pm)30.11 in (2:35 am)
Wind Speed11.6 mph18.4 mph (9:35 am)
Wind Gust28.8 mph (10:55 am)
Weather ElementAverage
Visibility10 mi
Wind DirectionENE (59.7 °)

Weather ElementTotal
Precipitation---
Heating Degree Days4.2 (Base 65)
Growing Degree Days10.8 (Base 50)
Averaged from 71 records on November 13, 2013
WEATHER CONDITIONS BREAKOUT
WIND DIRECTION BREAKOUT
WEATHER BY HOUR - NOVEMBER 13, 2013
[ °C ]   °F
Local TimeTemperatureDewpointHumidityBarometerVisibilityWind DirectionWind SpeedGust SpeedPrecipitationEventsConditions
12:35 AM68.0 °F55.4 °F64 %30.12 in10.0 miNorth (360°)4.6 mphScattered Clouds
12:55 AM68.0 °F55.4 °F64 %30.13 in10.0 miNorth (360°)3.5 mphMostly Cloudy
1:15 AM68.0 °F55.4 °F64 %30.12 in10.0 miNorth (360°)4.6 mphScattered Clouds
1:35 AM68.0 °F55.4 °F64 %30.12 in10.0 miNorth (360°)5.8 mphClear
1:55 AM68.0 °F53.6 °F60 %30.12 in10.0 miNorth (360°)4.6 mphClear
2:15 AM66.2 °F51.8 °F60 %30.12 in10.0 miNorth (360°)8.1 mphScattered Clouds
2:35 AM66.2 °F51.8 °F60 %30.11 in10.0 miNorth (10°)8.1 mphClear
2:55 AM66.2 °F50.0 °F56 %30.12 in10.0 miNorth (10°)10.4 mphClear
3:15 AM66.2 °F50.0 °F56 %30.12 in10.0 miNNE (20°)12.7 mph17.3 mphClear
3:35 AM64.4 °F50.0 °F59 %30.13 in10.0 miNorth (10°)10.4 mph17.3 mphClear
3:55 AM64.4 °F48.2 °F56 %30.14 in10.0 miNNE (20°)10.4 mph23.0 mphClear
4:15 AM62.6 °F48.2 °F59 %30.14 in10.0 miNNE (20°)9.2 mph18.4 mphClear
4:35 AM62.6 °F48.2 °F59 %30.15 in10.0 miNNE (20°)9.2 mph18.4 mphClear
4:55 AM60.8 °F48.2 °F63 %30.16 in10.0 miNorth (10°)11.5 mph17.3 mphClear
5:15 AM60.8 °F46.4 °F59 %30.17 in10.0 miNNE (20°)15.0 mph18.4 mphClear
5:35 AM60.8 °F46.4 °F59 %30.19 in10.0 miNorth (10°)10.4 mph18.4 mphClear
5:55 AM59.0 °F46.4 °F63 %30.19 in10.0 miNNE (20°)13.8 mph17.3 mphClear
6:15 AM59.0 °F48.2 °F67 %30.20 in10.0 miNNE (20°)9.2 mph16.1 mphMostly Cloudy
6:35 AM59.0 °F48.2 °F67 %30.21 in10.0 miNNE (20°)10.4 mph23.0 mphScattered Clouds
6:55 AM59.0 °F48.2 °F67 %30.22 in10.0 miNNE (20°)15.0 mph19.6 mphClear
7:15 AM59.0 °F48.2 °F67 %30.22 in10.0 miNNE (20°)11.5 mph19.6 mphClear
7:35 AM59.0 °F48.2 °F67 %30.23 in10.0 miNNE (20°)10.4 mph18.4 mphClear
7:55 AM59.0 °F48.2 °F67 %30.24 in10.0 miNNE (20°)10.4 mph18.4 mphClear
8:15 AM59.0 °F50.0 °F72 %30.25 in10.0 miNE (40°)10.4 mph17.3 mphClear
8:35 AM60.8 °F50.0 °F68 %30.26 in10.0 miNNE (30°)13.8 mph19.6 mphClear
8:55 AM60.8 °F50.0 °F68 %30.26 in10.0 miNNE (30°)15.0 mph21.9 mphScattered Clouds
9:15 AM62.6 °F48.2 °F59 %30.27 in10.0 miNE (40°)17.3 mph26.5 mphScattered Clouds
9:35 AM62.6 °F48.2 °F59 %30.27 in10.0 miNE (40°)18.4 mph24.2 mphClear
9:55 AM62.6 °F48.2 °F59 %30.27 in10.0 miNNE (20°)17.3 mph26.5 mphScattered Clouds
10:15 AM64.4 °F48.2 °F56 %30.28 in10.0 miNE (50°)18.4 mph24.2 mphScattered Clouds
10:35 AM62.6 °F48.2 °F59 %30.27 in10.0 miNE (40°)12.7 mph20.7 mphScattered Clouds
10:55 AM64.4 °F48.2 °F56 %30.28 in10.0 miNE (40°)17.3 mph28.8 mphMostly Cloudy
11:15 AM64.4 °F48.2 °F56 %30.28 in10.0 miNE (40°)11.5 mph21.9 mphMostly Cloudy
11:35 AM64.4 °F48.2 °F56 %30.27 in10.0 miNE (40°)13.8 mph23.0 mphScattered Clouds
11:55 AM64.4 °F46.4 °F52 %30.27 in10.0 miNE (40°)15.0 mph24.2 mphScattered Clouds
12:15 PM66.2 °F46.4 °F49 %30.26 in10.0 miNE (40°)18.4 mph27.6 mphClear
12:35 PM66.2 °F46.4 °F49 %30.26 in10.0 miNE (40°)16.1 mph23.0 mphClear
12:55 PM64.4 °F46.4 °F52 %30.25 in10.0 miNE (40°)12.7 mph24.2 mphClear
1:15 PM66.2 °F46.4 °F49 %30.25 in10.0 miNE (40°)13.8 mph25.3 mphClear
1:35 PM66.2 °F46.4 °F49 %30.25 in10.0 miNE (50°)12.7 mph27.6 mphClear
1:55 PM66.2 °F46.4 °F49 %30.25 in10.0 miNE (40°)10.4 mph25.3 mphClear
2:15 PM66.2 °F46.4 °F49 %30.24 in10.0 miNE (40°)18.4 mph24.2 mphClear
2:35 PM64.4 °F46.4 °F52 %30.24 in10.0 miNE (50°)16.1 mph26.5 mphClear
2:55 PM66.2 °F46.4 °F49 %30.25 in10.0 miNE (50°)16.1 mph25.3 mphScattered Clouds
3:15 PM64.4 °F46.4 °F52 %30.24 in10.0 miNE (40°)13.8 mph23.0 mphScattered Clouds
3:35 PM66.2 °F44.6 °F46 %30.25 in10.0 miNE (50°)15.0 mph25.3 mphScattered Clouds
3:55 PM64.4 °F44.6 °F49 %30.26 in10.0 miNE (40°)17.3 mph28.8 mphMostly Cloudy
4:15 PM62.6 °F44.6 °F52 %30.27 in10.0 miNE (40°)13.8 mph25.3 mphOvercast
4:35 PM62.6 °F44.6 °F52 %30.28 in10.0 miNE (40°)12.7 mph18.4 mphOvercast
4:55 PM60.8 °F44.6 °F55 %30.28 in10.0 miNE (40°)16.1 mph26.5 mphScattered Clouds
5:15 PM60.8 °F44.6 °F55 %30.28 in10.0 miNNE (30°)8.1 mph23.0 mphClear
5:35 PM60.8 °F42.8 °F52 %30.28 in10.0 miNNE (30°)11.5 mph16.1 mphClear
5:55 PM59.0 °F44.6 °F59 %30.29 in10.0 miNNE (30°)6.9 mphClear
6:15 PM59.0 °F44.6 °F59 %30.30 in10.0 miNNE (30°)6.9 mphClear
6:35 PM59.0 °F44.6 °F59 %30.30 in10.0 miNNE (30°)9.2 mphClear
6:55 PM59.0 °F44.6 °F59 %30.31 in10.0 miNNE (30°)10.4 mph16.1 mphClear
7:15 PM57.2 °F44.6 °F63 %30.32 in10.0 miNE (40°)12.7 mph20.7 mphClear
7:35 PM57.2 °F44.6 °F63 %30.32 in10.0 miNNE (30°)9.2 mph17.3 mphClear
7:55 PM57.2 °F44.6 °F63 %30.33 in10.0 miNE (40°)11.5 mph18.4 mphClear
8:15 PM57.2 °F44.6 °F63 %30.33 in10.0 miNE (40°)11.5 mph18.4 mphClear
8:35 PM57.2 °F44.6 °F63 %30.33 in10.0 miNNE (30°)9.2 mph16.1 mphClear
8:55 PM55.4 °F44.6 °F67 %30.34 in10.0 miNNE (30°)9.2 mph20.7 mphClear
9:15 PM55.4 °F44.6 °F67 %30.33 in10.0 miNNE (30°)10.4 mph16.1 mphClear
9:35 PM55.4 °F44.6 °F67 %30.33 in10.0 miNNE (30°)10.4 mph17.3 mphClear
9:55 PM55.4 °F44.6 °F67 %30.33 in10.0 miNNE (30°)11.5 mph17.3 mphClear
10:15 PM55.4 °F46.4 °F72 %30.33 in10.0 miNE (40°)11.5 mph20.7 mphClear
10:35 PM55.4 °F46.4 °F72 %30.33 in10.0 miNE (40°)11.5 mph20.7 mphClear
10:55 PM55.4 °F46.4 °F72 %30.33 in10.0 miNE (40°)10.4 mph16.1 mphClear
11:15 PM55.4 °F46.4 °F72 %30.32 in10.0 miNE (40°)6.9 mph19.6 mphClear
11:35 PM55.4 °F46.4 °F72 %30.32 in10.0 miNE (40°)8.1 mphClear
11:55 PM53.6 °F46.4 °F77 %30.32 in10.0 miNNE (20°)5.8 mphClear
Hourly data recorded from KPCM, located miles away from Playa del Carmen, Quintana Roo







STORIES FROM OUR PARTNERS